Find Local Weather

World > North America > United States > New York

Solon Pond, New York Regional Weather

Lat: 42.62N, Lon: 75.92W
Wx Zone: NYZ044
Warning FLW WEATHER ALERT - (More Info. Click Here) Warning
Feedback
Expires:201809241100;;129651
ASUS41 KALY 241010
RWRALY

NEW YORK STATE HOURLY WEATHER ROUNDUP
NATIONAL WEATHER SERVICE ALBANY NY
600 AM EDT MON SEP 24 2018

NOTE: "FAIR" INDICATES FEW OR NO CLOUDS BELOW 12,000 FEET WITH NO
SIGNIFICANT WEATHER AND/OR NO OBSTRUCTIONS TO VISIBILITY.


NYZ005>009-017-018-044>046-055-056-241100-
CENTRAL

  
CITY           SKY/WX    TMP DP  RH WIND       PRES   REMARKS
FULTON         FAIR      47  41  80 E3        30.39R                  
SYRACUSE       FAIR      45  45 100 E9        30.40R                  
ROME           FAIR      46  45  96 E7        30.43R                  
ELMIRA         FOG       49  48  97 CALM      30.36R VSB 1/4          
BINGHAMTON     FOG       43  43 100 E6        30.37R VSB 1/4          
MONTICELLO     CLOUDY    46  46 100 NE6       30.40R FOG              
$$


SKY/WX - Weather  TMP - Temperature  DP - Dew Point  RH - Relative Humidity
WIND - Wind Direction/Speed PRES - Barometric Pressure